Tracking 30970 objects as of 3-Jul-2025
HD Live streaming from Space Station
objects crossing your sky now

SL-16 DEB

Track SL-16 DEB now!
10-day predictions


NORAD ID: 22419
Int'l Code: 1992-093DL
Perigee: 838.2 km
Apogee: 992.3 km
Inclination: 71.2 °
Period: 103.2 minutes
Semi major axis: 7286 km
RCS: 0.0695 m2 (small)
Launch date: December 25, 1992
Source: Commonwealth of Independent States (former USSR) (CIS)
Launch site: TYURATAM MISSILE AND SPACE COMPLEX (TTMTR)

Note: This is SATELLITE DEBRIS
Your satellite tracking list
GLOBAL-2
Track 1 satellite(s)




NASA's NSSDC Master Catalog

Two Line Element Set (TLE):
1 22419U 92093DL  25183.89232541  .00000254  00000-0  20824-3 0  9994
2 22419  71.1783 150.6010 0105792 357.7459   2.3162 13.95880548652349
Source of the keplerian elements: AFSPC